K9KDT Weather Reports


time (UTC)temp
F
wind
direction
speed
knots
gust
knots
rain 1hr
in
rain 24hr
in
rain mn
in
humidity
%
barometer
mb
20260506051138 46 348 4.3 8.7 0.00 0.00 0.00 54 1011.4
20260506050138 46 321 4.3 7.8 0.00 0.00 0.00 52 1011.3
20260506044138 47 342 2.6 7.0 0.00 0.00 0.00 52 1011.3
20260506042138 48 355 1.7 5.2 0.00 0.00 0.00 50 1011.3
20260506041138 48 336 0.9 4.3 0.00 0.00 0.00 51 1011.2
20260506035138 48 306 2.6 3.5 0.00 0.00 0.00 52 1010.9
20260506034138 48 308 1.7 3.5 0.00 0.00 0.00 50 1011.0
20260506033138 49 333 2.6 4.3 0.00 0.00 0.00 49 1010.7
20260506032138 49 324 2.6 7.0 0.00 0.00 0.00 49 1010.5
20260506031138 49 323 0.9 7.8 0.00 0.00 0.00 49 1010.5
20260506030138 50 329 0.9 4.3 0.00 0.00 0.00 47 1010.6
20260506025138 50 314 0.9 7.0 0.00 0.00 0.00 47 1010.4
20260506024138 50 316 3.5 7.0 0.00 0.00 0.00 47 1010.4
20260506023138 50 321 2.6 7.0 0.00 0.00 0.00 49 1010.1
20260506021138 50 325 3.5 6.1 0.00 0.00 0.00 50 1010.0
20260506020138 50 281 2.6 6.1 0.00 0.00 0.00 52 1009.8
20260506015138 49 263 1.7 3.5 0.00 0.00 0.00 52 1009.6
20260506014138 49 277 1.7 2.6 0.00 0.00 0.00 51 1009.4
20260506013138 50 277 0.9 3.5 0.00 0.00 0.00 50 1009.2
20260506012139 50 277 0.9 3.5 0.00 0.00 0.00 48 1009.0
20260506011138 50 277 0.9 2.6 0.00 0.00 0.00 48 1009.1
20260506010138 51 277 0.0 2.6 0.00 0.00 0.00 46 1008.8
20260506005138 52 277 0.9 3.5 0.00 0.00 0.00 44 1008.7
20260506004138 52 280 2.6 5.2 0.00 0.00 0.00 44 1008.6
20260506003138 53 275 2.6 6.1 0.00 0.00 0.00 42 1008.6
20260506001138 53 252 2.6 9.6 0.00 0.00 0.00 39 1008.5
20260506000138 53 275 4.3 9.6 0.00 0.00 0.00 39 1008.6
20260505234138 54 302 2.6 14.8 0.00 0.00 0.00 40 1008.4
20260505233138 54 298 2.6 7.8 0.00 0.00 0.00 39 1008.5
20260505232138 54 289 5.2 9.6 0.00 0.00 0.00 40 1008.6
20260505231137 54 293 7.8 10.4 0.00 0.00 0.00 42 1008.6
20260505225138 54 271 8.7 11.3 0.00 0.00 0.00 40 1008.8
20260505224138 54 290 7.0 12.2 0.00 0.00 0.00 38 1008.8
20260505223138 55 304 8.7 11.3 0.00 0.00 0.00 38 1008.8
20260505222138 55 281 2.6 11.3 0.00 0.00 0.00 38 1008.7
20260505221138 55 276 7.0 13.0 0.00 0.00 0.00 38 1008.8
20260505220138 55 286 7.8 13.9 0.00 0.02 0.00 39 1008.7
20260505214138 55 298 7.0 11.3 0.00 0.02 0.00 37 1009.0
20260505211138 55 277 7.0 12.2 0.00 0.02 0.00 38 1008.8
20260505210137 55 259 9.6 13.0 0.00 0.02 0.00 36 1008.9
20260505205137 56 309 3.5 13.9 0.00 0.02 0.00 37 1008.8
20260505204138 55 276 7.8 12.2 0.00 0.02 0.00 35 1008.8
20260505203138 55 286 10.4 13.9 0.00 0.02 0.00 34 1008.8
20260505202138 55 284 3.5 12.2 0.00 0.02 0.00 36 1009.0
20260505201137 55 279 4.3 12.2 0.00 0.02 0.00 39 1009.0
20260505195137 56 298 6.1 16.5 0.00 0.02 0.00 36 1009.3
20260505194138 57 243 7.8 13.0 0.00 0.02 0.00 36 1009.3
20260505192138 55 261 7.8 11.3 0.00 0.02 0.00 38 1009.2
20260505191137 56 213 5.2 14.8 0.00 0.02 0.00 35 1009.6
20260505185137 56 218 7.0 14.8 0.00 0.02 0.00 34 1009.4
20260505184137 56 219 9.6 13.0 0.00 0.02 0.00 34 1009.4
20260505183138 55 232 5.2 12.2 0.00 0.02 0.00 36 1009.3
20260505182138 56 273 10.4 14.8 0.00 0.02 0.00 32 1009.2
20260505181137 56 209 6.1 13.0 0.00 0.02 0.00 35 1009.3
20260505180137 56 234 9.6 16.5 0.00 0.02 0.00 36 1009.2
20260505175137 56 231 13.0 13.0 0.00 0.02 0.00 37 1009.1
20260505174137 56 330 4.3 14.8 0.00 0.02 0.00 34 1009.1
20260505173137 55 240 2.6 11.3 0.00 0.02 0.00 35 1009.1
20260505172138 55 284 8.7 14.8 0.00 0.02 0.00 37 1008.9
20260505164137 54 281 6.1 14.8 0.00 0.02 0.00 39 1009.1
20260505163137 53 261 5.2 14.8 0.00 0.02 0.00 42 1008.8
20260505161137 53 265 6.1 10.4 0.00 0.02 0.00 41 1008.7
20260505160137 52 295 8.7 15.6 0.00 0.02 0.00 39 1008.8
20260505153137 52 269 6.1 9.6 0.00 0.02 0.00 43 1008.6
20260505151137 51 270 7.0 10.4 0.00 0.02 0.00 41 1008.8
20260505150137 51 284 7.8 10.4 0.00 0.02 0.00 41 1008.9
20260505130137 48 281 2.6 6.1 0.00 0.02 0.00 53 1009.0
20260505124137 48 284 4.3 7.0 0.00 0.02 0.00 54 1008.8
20260505123137 48 280 2.6 7.8 0.00 0.02 0.00 55 1008.5
20260505122138 47 292 3.5 8.7 0.00 0.02 0.00 56 1008.6
20260505121137 47 279 2.6 7.0 0.00 0.02 0.00 58 1008.8
20260505120137 47 290 3.5 4.3 0.00 0.02 0.00 57 1008.4
20260505115137 47 254 1.7 4.3 0.00 0.02 0.00 56 1009.0
20260505114137 47 290 2.6 5.2 0.00 0.02 0.00 53 1008.8
20260505113137 48 263 2.6 7.8 0.00 0.02 0.00 53 1008.3
20260505112137 47 288 1.7 5.2 0.00 0.02 0.00 55 1007.6
20260505111137 48 252 1.7 7.0 0.00 0.02 0.00 53 1007.3
20260505110137 48 328 2.6 7.0 0.00 0.02 0.00 53 1006.8
20260505102137 48 286 2.6 5.2 0.00 0.02 0.00 55 1007.3
20260505101137 48 325 3.5 8.7 0.00 0.02 0.00 55 1007.3
20260505100137 48 298 5.2 7.8 0.00 0.02 0.00 55 1006.5
20260505095137 49 321 3.5 8.7 0.00 0.02 0.00 54 1006.3
20260505094137 49 311 2.6 9.6 0.00 0.02 0.00 53 1006.6
20260505093137 49 308 6.1 10.4 0.00 0.02 0.00 53 1006.6
20260505092137 50 341 7.0 13.9 0.00 0.02 0.00 53 1006.4
20260505091137 50 286 3.5 7.8 0.00 0.02 0.00 52 1006.0
20260505090137 50 311 3.5 8.7 0.00 0.02 0.00 53 1006.2
20260505085137 50 318 2.6 9.6 0.00 0.02 0.00 53 1006.1
20260505084137 50 296 3.5 9.6 0.00 0.02 0.00 54 1005.7
20260505083137 51 313 6.1 8.7 0.00 0.02 0.00 52 1005.8
20260505082137 51 322 6.1 10.4 0.00 0.02 0.00 51 1005.4
20260505081137 52 333 6.1 13.0 0.00 0.02 0.00 50 1005.2
20260505080137 52 334 6.1 16.5 0.00 0.02 0.00 50 1004.8
20260505075137 53 292 5.2 10.4 0.00 0.02 0.00 52 1005.0
20260505074137 54 315 3.5 7.8 0.00 0.02 0.00 50 1004.7
20260505073137 54 331 3.5 10.4 0.00 0.02 0.00 49 1004.3
20260505072137 55 272 2.6 8.7 0.00 0.02 0.00 48 1004.2
20260505071137 55 304 2.6 7.8 0.00 0.02 0.00 47 1004.0
20260505070137 55 238 4.3 10.4 0.00 0.02 0.00 48 1004.0
20260505065137 56 302 5.2 13.0 0.00 0.02 0.00 45 1003.9
20260505064137 56 306 3.5 11.3 0.00 0.02 0.00 44 1003.6
20260505063137 56 302 4.3 12.2 0.00 0.02 0.00 44 1003.4
20260505062137 56 298 3.5 8.7 0.00 0.02 0.00 45 1003.7
20260505061137 57 296 7.0 10.4 0.00 0.02 0.00 44 1003.6
20260505060137 57 292 4.3 10.4 0.00 0.02 0.00 43 1003.4